Regional Weather Roundup
Issued by NWS

Home | Current Version | Previous Version | Text Only | Print | Product List | Glossary On
Versions: 1 2 3 4 5 6 7 8 9 10 11 12 13 14 15 16 17 18 19 20 21 22 23 24 25 26 27 28 29 30 31 32 33 34 35 36 37 38 39 40 41 42 43 44 45 46 47 48 49 50
000
ASUS43 KTOP 191308
RWRKS

WEATHER ROUNDUP FOR KANSAS
NATIONAL WEATHER SERVICE GOODLAND KS
700 AM CST THU JAN 19 2017

NOTE:  "FAIR" INDICATES FEW OR NO CLOUDS BELOW 12,000 FEET WITH NO
SIGNIFICANT WEATHER AND/OR OBSTRUCTIONS TO VISIBILITY.

KSZ001>006-013>018-027>032-041>047-191400-
NORTHWEST KANSAS

CITY           SKY/WX    TMP DP  RH WIND       PRES   REMARKS
GOODLAND       CLEAR     24  23  96 SE6       29.62S
HAYS           CLOUDY    44  42  93 SE10      29.67F
HILL CITY      CLOUDY    43  43 100 E5        29.66F FOG
RUSSELL        CLOUDY    44  43  96 S10       29.67F
$$

KSZ061>065-074>080-084>089-191400-
SOUTHWEST KANSAS

CITY           SKY/WX    TMP DP  RH WIND       PRES   REMARKS
DODGE CITY     CLOUDY    43  41  93 S13       29.64S
ELKHART          N/A     29  21  72 NW6         N/A
GARDEN CITY    CLOUDY    40  38  93 SE10      29.62S WCI  33
GREAT BEND     LGT RAIN  44  43  96 S10       29.69S FOG
LIBERAL        CLOUDY    28  25  86 CALM      29.60S VSB 1/4
PRATT          CLOUDY    41  41  99 S15G22    29.68S FOG
$$

KSZ066>073-081>083-090>101-191400-
SOUTHEAST KANSAS

CITY           SKY/WX    TMP DP  RH WIND       PRES   REMARKS
CHANUTE        FOG       45  44  97 S8        29.82S VSB 1/2
COFFEYVILLE    FOG       45  45 100 S6        29.83S VSB 3/4
HUTCHINSON     CLOUDY    44  43  96 SE13      29.72F FOG
MEDICINE LODGE   N/A     44  44 100 SE10      29.70S
NEWTON         CLOUDY    43  43 100 S12       29.75F FOG
PARSONS        CLOUDY    45  44  97 S7        29.83S FOG
WICHITA INTL   DRIZZLE   45  44  97 S13       29.75F FOG
WICHITA JABRA  CLOUDY    44  44 100 S14       29.75F FOG
WICHITA MCCONL CLOUDY    45  44  97 S14       29.75F
WINFIELD       CLOUDY    46  44  93 SE7       29.79F
$$

KSZ007>012-019>026-033>040-048>060-102>105-191400-
NORTHEAST KANSAS

CITY           SKY/WX    TMP DP  RH WIND       PRES   REMARKS
CONCORDIA      CLOUDY    43  43 100 S7        29.73F
EMPORIA        FOG       43  43 100 S10       29.78F VSB 1
LAWRENCE       CLOUDY    43  43 100 E3        29.82S FOG
MANHATTAN      CLOUDY    43  41  93 S9        29.77F
MARYSVILLE     CLOUDY    37  36  93 SE3       29.76F
OLATHE IND     FOG       43  43 100 SE7       29.82S VSB 3/4
OLATHE EXE     CLOUDY    42  42 100 S8        29.82S FOG
SALINA         CLOUDY    45  43  93 SE8       29.75  FOG
TOPEKA BILLARD CLOUDY    44  42  93 SE7       29.80F FOG
TOPEKA FORBES  CLOUDY    45  43  93 S8        29.79F FOG
$$




USA.gov is the U.S. government's official web portal to all federal, state and local government web resources and services.